Theta_e
337 337 336 335 335 334 334 334 333 332 331 330 329 328 327 327 326 326 325 322 319 317 315 312 308 306 303 300 299 299 300 300 299 299 299 299 299 298 298 298 298 298 298 298 298 297 297 297 297 297 297 297 297 297 298 299 299 298 298 298 298 297 298 298 299 300 300 300 301 302 303 302 301 302 302 301 300 298 297 297 297 297 297 297 298
337 337 336 336 335 334 333 333 333 332 331 330 328 327 327 326 326 326 324 320 317 315 313 310 306 303 300 299 299 299 299 299 299 299 299 299 299 298 298 298 298 298 297 298 297 297 297 297 297 297 297 297 298 298 299 301 301 299 297 297 297 297 298 298 298 299 299 300 301 302 303 302 302 302 301 301 300 298 297 297 296 297 297 297 298
337 336 336 335 335 334 333 333 333 332 331 329 327 327 327 326 327 325 321 318 316 314 311 308 304 301 299 299 299 299 299 299 299 299 299 299 298 298 298 298 298 297 297 297 297 297 297 297 297 297 297 297 297 297 298 300 299 297 297 298 299 298 297 298 299 300 300 301 301 302 303 302 301 302 301 300 299 297 297 296 296 297 297 297 298
337 336 336 334 334 333 333 333 332 331 330 328 326 326 326 327 326 323 319 317 315 313 310 306 302 300 299 298 298 298 299 299 299 299 299 298 298 298 298 298 297 297 297 297 296 297 297 296 296 296 297 297 297 297 297 298 298 297 298 300 300 298 297 298 300 301 301 301 301 302 302 301 301 301 300 299 298 297 296 296 296 297 297 297 298
336 335 335 333 333 332 332 332 331 331 329 327 326 326 327 327 325 320 318 316 314 312 309 304 301 300 299 298 298 298 299 299 299 299 298 298 298 298 298 297 297 297 297 296 296 296 296 296 296 296 296 297 297 297 297 297 297 297 297 299 299 298 297 298 300 301 301 301 301 301 301 301 301 300 299 298 297 296 295 295 296 297 297 297 298
335 334 333 332 332 332 332 332 331 330 328 326 327 327 327 327 323 319 317 315 313 311 308 303 301 300 299 298 298 298 299 298 298 298 298 298 298 298 297 297 297 297 297 297 296 296 296 296 296 296 296 297 297 297 296 297 297 297 297 297 297 297 297 298 299 300 301 300 301 301 301 300 300 299 298 297 296 295 295 295 296 296 297 297 298
334 333 332 332 332 332 332 331 329 329 328 328 328 328 327 326 322 318 316 314 312 310 306 303 301 300 299 299 298 298 298 298 298 298 298 298 298 297 297 297 297 297 297 296 296 296 296 296 296 297 297 297 297 297 297 297 297 297 297 297 297 297 297 297 298 299 299 299 300 301 300 300 300 298 296 296 295 294 294 295 295 296 297 297 298
334 333 332 332 333 332 331 329 328 328 328 328 328 328 327 324 320 317 316 314 312 309 306 304 302 301 301 300 299 299 298 298 298 298 298 298 297 297 298 298 297 297 297 296 296 296 296 297 297 297 297 297 297 296 297 297 297 297 297 297 297 297 297 297 297 297 297 298 301 300 299 299 298 297 296 295 294 294 294 295 295 296 296 297 298
334 333 332 332 332 332 330 328 328 328 329 328 328 328 325 321 318 317 315 314 312 309 307 305 303 303 303 302 301 299 298 298 298 298 298 297 298 298 297 297 297 296 297 297 296 296 297 297 297 296 296 296 296 296 296 297 297 297 297 297 296 296 296 296 296 296 295 298 300 300 299 298 297 296 296 295 294 294 294 295 295 296 297 297 298
334 334 332 332 332 331 329 328 328 329 329 328 328 327 324 320 318 316 315 314 312 309 308 306 304 305 305 303 302 301 299 298 298 298 298 298 297 297 297 297 297 296 296 296 296 296 297 296 296 296 296 296 296 296 296 296 297 297 296 296 296 296 296 296 296 296 295 296 298 298 298 297 296 296 296 294 294 295 295 296 296 296 297 298 298
335 334 332 332 331 329 328 328 329 330 329 328 328 326 323 319 317 315 315 314 312 309 309 307 306 306 306 304 303 301 300 299 299 298 298 298 297 297 297 296 296 296 296 296 296 296 296 296 296 296 296 296 296 296 296 297 297 296 296 296 296 296 296 295 295 295 295 295 295 297 298 297 295 296 296 295 295 296 296 296 297 297 298 298 298
334 333 332 330 329 328 328 329 330 330 329 328 327 325 322 319 317 315 315 314 312 310 309 308 307 307 307 305 303 301 300 300 299 299 299 298 297 297 296 296 296 296 295 295 296 296 296 296 296 296 296 296 296 296 296 296 296 296 296 296 296 296 295 295 295 295 295 294 294 295 297 296 295 296 297 296 297 296 296 297 298 298 299 299 299
333 332 331 329 328 328 329 331 330 329 329 328 326 324 322 320 317 315 314 313 311 310 309 308 307 307 307 306 304 302 300 300 299 299 299 299 298 297 296 296 296 296 296 296 296 296 295 296 296 296 296 295 295 296 296 297 296 296 296 296 296 296 297 297 297 295 294 294 294 294 295 296 296 297 298 297 297 297 296 297 298 299 299 299 299
332 331 330 329 329 330 331 331 330 329 329 328 326 324 322 319 317 315 314 313 311 310 309 308 308 308 307 307 305 303 301 300 299 299 299 299 298 298 298 297 296 297 297 297 297 296 295 296 295 295 295 295 296 296 296 297 296 296 296 296 297 298 299 300 299 298 296 294 294 294 295 297 298 298 298 298 297 297 297 298 298 299 299 298 298
331 331 330 330 330 331 331 330 329 329 327 326 326 323 320 319 318 315 314 312 311 310 309 308 309 308 308 308 307 305 302 301 300 299 298 298 297 299 301 300 299 301 301 300 299 298 298 299 299 298 297 295 295 296 296 296 296 296 296 297 298 300 301 302 301 300 297 295 294 294 296 298 299 299 299 298 297 297 297 298 299 299 299 298 298
331 330 329 329 329 330 330 329 328 327 326 326 327 323 320 319 318 315 313 312 311 310 309 309 309 309 309 309 308 307 305 303 301 299 297 296 297 300 302 302 302 303 302 301 301 300 299 300 302 302 300 297 295 295 295 295 296 295 295 297 299 301 302 302 302 301 298 295 294 296 298 300 299 299 299 298 298 298 298 299 299 299 298 298 298
331 330 329 328 328 328 328 327 326 325 325 327 328 324 320 319 317 314 312 312 311 310 309 309 309 309 309 309 309 308 306 303 301 298 296 295 296 299 302 303 302 303 302 299 298 299 297 297 300 301 300 297 296 295 295 296 295 295 295 296 299 301 302 302 302 300 297 294 295 298 300 300 300 299 299 298 298 299 299 299 299 298 298 298 298
330 329 328 328 327 327 327 326 325 325 326 328 328 324 320 318 317 314 312 312 311 309 309 309 309 309 308 308 308 307 304 300 299 297 296 295 296 298 301 302 302 303 303 300 297 298 298 296 296 298 298 296 296 295 295 296 295 295 295 295 298 301 303 302 301 299 295 294 297 299 300 300 299 299 299 299 299 299 299 299 299 299 299 298 298
330 329 329 328 327 326 326 326 327 328 328 328 327 324 320 318 317 314 313 312 311 309 309 308 309 309 307 305 305 305 301 299 298 297 295 295 295 296 298 301 303 303 304 302 299 299 300 297 295 296 295 295 296 295 295 296 295 295 295 295 296 300 302 300 297 295 294 296 298 299 300 300 299 299 299 299 299 299 299 299 299 299 299 299 299
330 329 329 328 327 326 326 327 328 328 328 328 327 324 321 320 317 315 313 312 310 309 307 306 307 308 305 302 303 303 301 299 298 297 295 295 296 295 296 301 304 303 303 304 303 301 300 298 296 295 294 295 295 295 295 295 295 295 295 295 295 297 297 296 295 295 296 298 300 300 300 300 299 299 300 299 299 299 299 299 299 299 299 299 299
330 329 328 327 325 325 325 327 327 328 328 328 327 324 322 320 318 316 314 312 311 309 307 305 305 306 304 302 302 302 300 299 298 297 296 295 295 295 295 299 302 303 304 305 305 304 302 299 296 295 294 294 295 295 295 295 295 295 295 295 295 295 295 294 295 296 297 299 300 300 299 299 299 300 300 300 299 299 299 299 299 299 299 299 299
328 327 327 325 323 323 324 326 327 327 328 328 327 324 322 320 318 316 315 313 311 309 307 305 304 304 303 302 301 301 300 300 299 297 296 295 295 295 295 296 301 304 305 304 304 304 303 301 298 296 295 294 294 294 294 295 295 295 295 295 295 295 294 294 295 297 298 299 300 300 300 300 300 300 300 300 299 299 299 299 299 299 299 299 299
329 327 325 323 322 323 326 327 327 328 328 328 327 325 322 320 318 316 315 314 311 308 306 304 303 304 304 302 301 301 302 301 299 297 296 295 294 295 295 295 300 305 306 304 304 303 303 302 301 300 297 295 294 294 294 295 295 295 295 295 295 295 294 295 297 299 299 300 300 300 300 300 300 300 300 299 299 299 299 299 299 299 299 299 299
329 326 323 322 324 326 328 328 328 328 328 328 327 325 322 320 317 315 314 313 311 308 305 304 304 304 304 303 303 303 302 300 298 297 296 295 294 295 294 295 299 304 305 305 304 303 302 302 302 301 298 297 295 295 294 295 295 295 295 295 295 295 295 297 298 299 300 300 300 299 300 300 300 300 300 300 300 299 299 299 299 299 299 299 299
327 325 323 324 327 328 327 327 328 328 327 327 327 325 323 321 318 315 313 312 310 308 306 304 304 304 303 302 302 303 302 300 298 296 295 295 294 294 294 295 298 302 304 304 303 302 301 301 301 301 300 298 297 296 294 294 295 295 295 295 295 295 296 298 299 300 300 300 299 299 300 300 300 300 300 300 300 300 299 299 299 299 299 299 299
326 325 325 327 328 327 326 327 327 327 327 327 325 324 323 322 318 316 314 312 310 308 306 304 303 302 302 302 301 302 302 300 297 295 295 294 294 294 294 294 296 299 302 303 302 301 300 300 300 300 299 298 297 296 294 294 295 295 295 295 295 296 298 299 300 300 300 300 300 300 301 300 300 300 300 300 300 300 299 299 299 299 299 299 300
327 326 326 327 328 327 326 326 326 327 326 325 323 322 321 321 318 316 315 313 310 308 306 304 302 302 302 301 301 302 302 300 297 295 295 295 294 294 294 294 295 296 299 300 300 300 300 299 299 298 298 298 296 295 294 294 295 295 295 295 297 298 299 300 300 300 301 300 300 301 301 300 300 300 300 300 300 300 299 299 299 299 300 300 300
328 327 325 325 327 327 326 325 326 327 326 324 323 322 321 320 318 316 315 313 311 308 306 304 303 303 302 301 301 302 302 300 297 296 296 295 295 295 295 294 294 295 296 297 297 297 298 298 298 297 297 296 295 294 294 294 295 295 295 298 300 301 301 301 301 301 301 301 300 301 301 300 300 299 299 300 300 299 299 299 299 299 300 300 300
327 326 323 322 323 325 325 324 325 326 326 325 323 322 322 320 318 315 314 313 311 309 306 305 304 303 301 301 301 301 300 299 298 297 296 295 295 295 295 295 295 295 295 295 294 295 295 295 295 295 294 294 294 294 294 294 295 295 296 300 302 302 302 302 302 301 301 301 300 301 301 300 299 299 299 299 299 299 299 299 299 299 300 300 300
325 323 322 321 321 322 324 324 325 325 325 324 322 321 320 319 317 315 314 313 310 308 307 306 305 303 301 301 301 301 300 298 298 297 296 295 295 295 295 295 295 295 295 294 294 293 293 293 293 293 293 293 294 294 294 294 294 295 297 300 302 302 302 302 301 300 300 300 300 300 300 300 299 299 299 299 299 299 299 299 299 299 300 300 300
324 323 321 321 322 323 324 324 324 324 323 322 322 320 319 317 315 313 313 312 311 309 308 306 305 303 302 302 301 300 299 298 297 296 296 295 295 294 294 294 294 294 295 294 293 293 293 293 292 292 292 293 294 294 294 295 295 296 298 300 301 301 302 301 300 300 300 300 300 300 300 300 300 299 299 299 299 299 299 299 299 300 300 300 300
325 324 322 321 322 324 324 323 323 323 322 320 319 319 319 318 316 314 313 312 311 310 309 307 305 304 303 302 301 300 298 298 297 296 296 295 294 294 294 294 294 294 294 294 293 293 293 292 292 293 293 294 295 296 297 297 297 297 298 299 299 300 300 299 299 299 300 300 299 300 300 300 300 299 299 299 299 299 299 299 299 299 300 300 299
326 324 322 321 322 324 324 323 323 323 322 320 319 319 319 319 317 315 313 311 310 309 309 308 306 305 304 302 301 299 298 298 297 296 295 294 294 294 293 294 294 294 294 293 293 292 292 292 292 294 295 296 296 297 298 297 297 297 298 298 298 298 298 299 299 300 300 300 300 300 301 300 300 300 300 300 300 299 299 299 299 299 299 299 299
325 324 324 323 324 325 325 325 324 324 323 322 320 319 319 320 319 316 314 312 310 310 309 308 307 305 304 303 302 301 300 299 297 296 295 294 294 293 293 293 294 293 293 293 292 292 292 292 292 293 295 296 296 296 296 296 296 297 298 298 298 298 298 299 300 301 301 301 301 301 301 301 300 300 300 300 300 299 299 299 299 299 299 299 299
323 323 323 323 324 325 326 326 325 324 323 322 320 320 320 319 317 316 315 314 313 312 311 310 308 306 305 305 304 303 302 300 298 297 295 294 293 293 293 293 293 293 292 292 292 292 292 292 292 292 294 295 294 294 295 295 296 298 298 298 298 298 298 299 300 300 301 301 301 301 301 300 300 300 300 299 299 298 299 299 299 299 299 299 299
323 323 323 322 322 323 324 325 324 323 322 321 321 320 319 317 316 315 315 314 313 313 312 311 309 308 306 305 305 304 303 301 300 298 296 294 293 292 293 293 293 293 292 292 292 292 292 292 292 293 293 294 294 294 294 296 297 298 298 298 297 298 298 299 300 300 301 301 301 301 300 300 300 300 299 298 298 298 299 299 299 299 299 299 299
324 324 323 322 323 323 323 324 324 322 321 320 319 318 317 316 316 316 315 314 313 313 312 311 310 308 307 306 305 304 304 303 301 299 297 294 292 292 292 292 293 293 293 292 292 292 292 292 293 293 293 293 294 294 294 296 298 298 297 297 297 298 299 300 301 301 301 301 300 300 300 300 299 299 298 298 298 299 299 299 299 299 299 299 299
323 322 321 321 322 323 323 323 324 322 321 320 319 318 316 315 315 315 314 314 314 313 311 311 310 309 307 306 305 304 304 303 302 300 297 295 293 292 292 292 292 292 292 292 292 292 292 292 293 293 293 294 294 294 295 297 298 298 298 297 298 299 300 300 301 301 301 300 300 300 300 299 299 298 298 298 299 299 299 299 299 299 299 299 299
322 321 321 321 322 322 322 323 323 322 320 319 318 317 316 315 315 314 314 314 313 312 311 310 309 309 308 307 306 305 304 303 302 301 299 296 294 292 292 292 292 292 292 292 292 292 292 292 292 292 293 294 295 295 296 297 298 298 298 298 298 299 300 300 300 300 300 300 300 300 300 300 300 299 299 299 299 299 299 299 299 299 299 299 299
321 321 320 321 322 321 320 321 321 321 320 319 318 317 317 316 316 315 314 313 312 312 311 309 308 308 308 307 307 306 305 304 303 302 300 298 296 293 292 292 292 292 292 292 292 292 293 294 294 295 295 296 298 298 298 297 298 298 298 298 298 299 300 300 300 300 301 301 301 300 300 300 300 299 299 299 299 299 299 299 299 299 299 299 299
321 321 321 322 321 320 319 320 320 320 319 319 318 318 318 317 316 315 314 312 312 311 310 309 308 308 308 308 308 307 306 305 304 303 301 299 297 295 294 293 292 293 293 293 292 294 296 299 300 300 300 300 301 301 301 300 299 298 298 298 299 299 300 300 300 301 301 300 300 300 300 300 299 299 299 298 298 298 298 299 299 299 299 299 299
321 321 322 322 321 319 319 320 320 320 320 319 318 318 318 317 316 314 314 313 312 311 310 309 309 309 309 308 308 308 307 306 305 304 303 301 300 298 296 294 293 293 293 294 293 294 297 300 301 302 302 302 302 302 301 300 299 298 298 298 299 300 300 300 300 300 301 301 300 300 300 300 299 299 299 298 299 299 299 299 299 299 299 299 299
321 321 321 321 320 319 319 320 320 320 320 319 318 317 316 316 315 314 313 313 312 311 310 310 309 309 308 308 308 308 307 307 306 304 303 302 301 300 298 296 295 293 293 294 294 295 296 299 300 300 301 302 302 302 302 301 299 298 298 298 299 300 300 301 301 301 301 301 300 300 300 300 299 299 299 299 299 299 299 299 299 299 299 299 299
321 321 321 320 319 318 317 318 318 319 319 319 317 316 315 315 314 314 313 313 312 312 311 310 310 309 308 308 308 307 307 306 305 305 304 303 302 301 299 298 296 295 293 293 294 295 296 298 299 299 300 301 302 301 302 301 300 299 298 299 299 300 300 300 301 300 300 300 300 300 300 299 299 299 299 299 299 299 299 299 299 299 299 299 299
321 321 320 320 320 318 317 316 316 316 317 317 317 316 315 314 314 313 314 313 313 313 311 310 310 309 308 308 308 307 306 305 305 304 304 303 302 300 298 297 296 295 294 293 293 294 296 297 298 298 300 301 302 301 302 301 300 299 299 299 300 300 300 301 301 301 301 301 301 301 300 300 299 299 299 299 299 299 299 299 299 299 299 299 298
320 320 320 319 319 318 316 315 315 315 315 315 315 315 315 314 313 314 314 314 313 313 312 310 309 309 308 308 307 306 305 305 304 304 304 303 301 299 297 296 296 296 296 294 293 293 295 296 297 298 299 300 301 301 301 300 298 298 299 300 300 301 301 301 301 301 301 301 302 302 301 301 301 301 300 300 300 299 299 299 299 299 299 299 299
318 318 317 316 316 315 315 314 314 314 314 314 314 314 314 314 313 313 313 313 312 312 311 310 309 308 308 307 307 306 305 304 304 304 304 302 299 298 297 297 298 299 299 298 297 296 296 297 298 298 299 299 299 299 298 297 297 297 299 300 300 300 300 300 301 301 301 302 302 302 302 302 302 301 301 301 301 300 299 299 299 299 299 299 299
316 316 315 314 314 314 313 313 313 313 313 313 312 312 312 312 312 312 311 311 311 310 310 309 308 307 307 306 306 305 305 304 304 304 303 301 299 297 298 299 299 300 301 301 301 300 299 299 299 299 300 300 299 299 298 298 298 298 299 299 300 300 300 300 301 301 302 302 302 302 302 302 301 301 301 301 300 300 299 299 299 299 299 299 299
316 316 314 314 313 313 313 313 313 312 312 311 311 311 311 311 312 312 311 311 311 311 310 310 309 308 307 306 305 305 305 305 304 304 303 301 299 298 298 300 301 301 301 301 301 301 301 301 301 301 301 301 300 299 299 299 299 299 300 300 300 300 300 300 301 301 301 301 301 301 301 301 301 301 300 300 299 299 299 299 299 299 299 299 299
315 315 314 313 313 313 313 313 312 312 311 311 311 311 311 311 311 312 311 311 311 311 310 310 309 308 307 305 305 305 305 305 304 303 302 302 301 300 299 299 300 301 301 301 301 301 301 301 301 301 301 300 299 299 299 299 299 300 300 300 300 300 301 301 301 301 301 301 301 301 301 301 300 300 300 299 299 299 299 299 299 299 299 299 299
314 314 313 313 313 313 312 312 312 311 311 310 310 310 310 310 311 311 311 311 310 310 310 309 308 307 306 305 305 305 305 305 304 303 303 302 302 301 300 299 299 299 300 300 300 300 301 301 301 301 300 299 298 298 298 299 299 300 300 299 300 300 301 301 301 301 301 301 301 300 300 300 300 299 299 299 299 299 300 300 299 299 299 299 299
Wind_Speed
32 31 30 30 30 29 27 26 27 27 25 24 22 19 17 17 19 20 18 15 13 14 14 16 19 19 19 20 19 19 20 20 20 19 18 17 16 15 15 14 13 13 12 12 11 11 11 11 11 10 11 11 10 9 8 6 5 6 6 5 4 4 3 2 2 3 5 7 10 13 14 17 19 18 19 21 25 27 28 28 29 29 27 27 28
33 33 31 30 30 28 27 27 29 28 26 24 22 19 18 19 20 19 15 14 15 16 16 17 18 19 19 20 20 20 21 21 21 20 19 18 17 16 15 15 14 13 13 13 12 12 11 10 10 10 10 10 10 10 9 6 4 4 5 5 4 4 3 4 5 7 9 10 12 14 14 16 19 19 19 21 24 27 28 29 29 28 27 27 28
34 34 32 31 30 28 28 29 30 29 27 25 22 19 19 20 19 16 13 14 16 17 17 17 19 19 20 20 20 20 21 21 21 21 19 18 17 17 16 15 14 13 13 12 12 12 11 10 10 9 9 9 8 9 9 8 6 5 5 4 3 3 3 5 7 9 11 13 14 15 16 17 18 18 19 21 24 26 28 29 29 28 27 27 28
34 33 33 33 31 29 31 32 31 31 29 25 23 21 21 21 18 14 15 16 17 18 18 18 19 20 20 20 21 21 22 22 22 20 18 18 18 17 16 15 14 13 13 12 12 12 11 11 10 9 10 9 8 8 8 7 7 5 4 3 2 3 3 6 8 9 12 14 15 15 16 17 18 18 19 21 23 25 28 29 28 28 27 27 28
33 31 33 33 31 30 32 33 34 33 29 26 25 24 23 20 16 15 17 18 19 20 19 19 20 21 21 21 22 23 23 22 21 20 19 18 18 17 16 15 15 14 14 13 12 12 12 11 11 10 10 10 9 8 7 6 5 3 2 1 1 2 4 6 7 9 12 14 15 14 15 16 16 17 19 21 24 26 28 28 28 28 28 28 27
33 31 32 32 31 33 34 34 35 32 28 28 27 25 23 21 16 17 19 19 21 21 20 20 21 21 21 22 22 23 23 22 21 20 20 19 18 17 17 16 16 15 14 13 13 13 12 12 12 12 11 10 9 8 6 5 4 3 1 1 2 3 5 6 7 9 11 13 13 14 15 15 16 18 20 21 24 28 30 29 28 27 29 29 29
35 32 32 32 33 35 36 35 34 31 30 29 26 25 24 20 16 19 20 21 22 22 21 21 21 21 21 22 23 23 23 22 22 21 21 20 19 18 18 17 16 15 14 14 13 13 13 13 12 11 10 8 7 7 5 4 3 2 1 1 3 5 6 7 7 8 9 10 11 13 15 14 15 19 20 21 24 28 30 31 31 29 30 30 30
35 33 33 34 36 37 37 34 31 30 31 29 25 25 23 17 17 20 21 22 22 22 22 22 21 20 21 22 22 23 22 22 22 22 21 20 20 19 18 17 16 15 15 15 14 14 14 12 10 8 7 7 7 7 5 4 2 1 0 2 4 6 7 8 8 8 9 8 9 13 14 14 16 19 21 23 27 29 29 30 31 31 31 31 30
34 34 35 36 37 38 36 32 29 30 31 28 26 26 21 17 20 21 22 23 22 22 22 22 21 21 21 21 21 22 22 23 22 22 21 21 20 19 18 17 16 16 15 14 14 14 12 9 8 9 9 9 9 8 6 4 2 0 1 2 5 6 8 9 9 10 11 9 8 12 14 15 18 20 20 24 28 30 30 30 30 31 32 32 32
34 35 37 38 39 37 33 30 30 33 32 29 27 26 21 20 22 22 23 23 22 22 22 21 21 21 21 22 22 22 22 22 22 22 21 21 20 19 18 17 16 16 15 14 14 13 10 9 10 10 10 9 8 7 6 4 3 1 1 3 5 6 7 9 11 12 13 11 10 11 14 16 18 18 20 24 28 30 32 32 31 31 32 34 35
36 37 37 37 37 35 32 31 33 34 33 29 27 25 20 20 22 23 23 23 23 23 23 22 22 22 22 22 23 23 23 23 23 23 22 21 20 19 18 17 17 16 15 14 14 12 11 12 12 11 10 10 9 8 6 5 3 2 1 2 4 6 7 10 11 13 14 14 13 12 13 16 18 18 20 26 29 30 33 33 31 32 33 34 36
38 37 35 33 33 33 32 34 36 35 32 29 27 25 20 20 22 23 24 24 24 24 23 22 23 22 22 23 23 24 25 25 24 24 23 21 20 19 18 18 17 16 15 14 14 13 12 13 12 12 11 10 9 8 7 6 4 2 2 2 4 6 8 9 12 14 15 16 16 14 13 15 18 20 22 26 29 30 32 32 30 30 32 34 35
39 37 34 32 32 33 35 37 37 35 33 30 28 25 21 21 22 24 24 24 25 25 24 24 24 23 23 23 23 25 26 25 25 24 23 22 20 19 18 18 17 16 14 14 14 14 13 12 12 12 11 10 10 10 9 7 5 3 2 3 4 6 8 10 12 15 17 18 18 17 14 15 18 21 22 24 28 29 30 31 30 29 31 33 34
35 34 32 31 33 35 38 38 37 35 33 30 28 26 22 21 22 24 25 26 26 26 26 25 24 24 23 23 23 25 26 25 25 24 23 22 20 18 17 16 16 15 14 14 14 13 12 11 11 11 11 12 12 10 8 5 3 3 4 5 6 8 11 12 14 17 18 19 20 19 17 16 18 21 21 21 24 26 27 29 29 29 30 32 32
32 30 29 30 35 38 39 38 35 32 31 30 30 26 22 22 24 24 25 27 26 26 27 26 25 24 23 22 23 24 25 24 23 23 22 21 19 18 17 15 15 15 15 15 14 13 12 10 8 9 12 13 12 8 6 4 3 4 6 7 8 10 13 14 16 18 20 20 20 18 16 15 17 20 19 19 21 23 24 27 28 29 30 31 32
30 30 30 30 34 37 37 36 33 30 31 32 31 27 24 25 26 25 26 27 27 27 27 26 26 25 23 22 23 22 21 21 20 20 21 21 20 20 18 17 17 18 18 18 17 16 15 13 10 10 13 13 10 8 7 5 4 5 6 6 6 8 11 14 16 18 19 19 17 15 14 15 17 19 18 18 20 22 25 27 26 28 30 31 32
32 32 31 30 32 33 33 33 32 32 33 32 30 29 28 27 26 25 27 28 28 27 28 27 26 25 23 22 22 21 20 19 18 19 21 22 23 22 20 19 19 17 17 19 18 16 16 16 15 15 14 12 10 9 8 6 5 5 6 6 5 6 8 11 16 18 19 18 15 13 14 16 18 18 17 18 19 21 26 27 25 27 31 31 31
35 34 32 32 32 30 30 32 33 34 34 32 30 29 29 27 25 26 27 28 28 28 28 27 25 25 25 24 24 23 22 20 19 20 22 24 25 25 22 19 17 16 15 16 16 15 15 17 18 18 17 13 11 11 10 8 7 7 8 8 5 3 6 12 16 17 18 16 13 13 15 17 17 17 16 18 19 20 24 25 25 28 30 30 30
34 34 33 32 30 28 28 30 34 35 33 31 29 31 32 30 27 27 27 27 27 28 28 28 26 27 27 25 26 26 24 21 21 21 22 24 26 27 24 18 16 17 16 13 13 14 16 16 17 18 17 13 10 11 10 9 8 7 8 9 7 6 9 12 14 16 15 12 12 14 16 16 16 15 15 16 17 19 22 23 24 26 29 29 31
32 32 31 31 30 29 28 30 34 35 33 30 29 31 34 31 28 27 26 26 28 29 29 30 29 29 28 26 27 27 25 22 21 21 22 24 26 27 25 20 16 16 14 11 12 14 16 16 15 17 17 14 11 11 10 10 9 8 9 10 10 10 11 12 12 14 13 10 11 15 15 14 14 14 14 14 16 19 21 22 23 26 27 27 29
30 29 29 28 28 29 30 31 33 34 32 30 29 29 30 29 28 27 26 27 28 30 30 31 30 28 27 26 26 27 26 23 22 22 23 25 25 26 26 23 17 15 15 14 14 14 15 16 15 15 16 15 13 12 12 10 9 9 10 11 11 11 12 12 12 11 10 8 10 13 14 13 13 14 14 14 17 19 20 21 24 26 27 25 27
30 29 29 29 28 30 32 33 34 34 33 31 30 29 28 28 28 27 26 26 27 29 30 30 29 28 27 26 25 26 26 24 22 22 24 25 25 25 27 25 20 17 16 16 15 14 14 15 14 14 14 15 14 14 13 12 10 10 10 11 11 11 12 12 11 9 8 9 10 11 13 13 13 14 15 14 16 19 19 21 24 25 25 25 26
32 29 28 30 31 32 33 33 33 34 33 31 31 30 28 27 27 26 25 25 25 27 28 27 26 26 25 25 24 26 26 25 23 22 23 25 25 25 27 27 24 20 18 17 16 15 14 13 15 15 14 14 15 14 13 13 11 11 11 11 11 11 11 11 8 6 8 9 11 12 13 13 13 15 15 13 14 17 18 21 24 23 23 25 25
33 32 30 30 32 32 31 31 32 33 32 31 29 28 26 26 26 26 26 25 25 27 27 26 25 25 26 25 25 26 27 27 25 22 23 24 25 25 28 28 26 24 23 21 19 18 17 17 17 16 15 15 15 14 14 13 12 12 12 11 11 11 10 9 6 5 7 9 11 13 13 12 12 15 15 13 14 17 18 20 22 23 23 25 25
33 33 31 29 28 29 30 31 32 32 31 30 28 27 26 26 26 27 27 26 27 27 27 27 27 26 25 26 25 25 26 27 26 23 23 24 24 25 28 29 29 27 26 24 22 20 20 20 19 18 17 16 15 15 14 13 12 12 12 11 11 10 9 7 5 5 6 9 12 14 12 11 12 14 15 14 14 16 17 18 21 22 23 24 25
33 32 30 27 26 28 31 32 32 32 31 29 28 27 25 24 25 27 28 28 28 28 27 27 26 25 25 25 25 24 25 26 26 24 24 25 25 26 27 29 30 30 28 27 25 22 21 21 20 20 19 18 16 15 14 13 13 13 12 11 11 11 8 6 6 6 6 9 13 12 10 11 13 14 15 14 14 15 16 17 20 21 22 24 26
36 33 31 28 27 27 29 30 31 31 30 29 28 25 22 22 24 26 28 29 29 28 26 26 26 27 26 25 24 23 24 27 28 25 25 26 27 27 28 29 31 32 30 29 27 24 23 22 21 21 21 19 17 16 15 14 14 13 12 11 10 10 7 6 8 10 9 11 13 11 9 12 14 14 13 13 14 15 14 16 19 20 21 22 25
35 32 29 29 29 29 29 29 30 31 30 29 28 24 22 23 24 26 28 29 28 27 26 27 28 28 26 25 24 25 27 29 29 26 24 26 28 29 30 30 31 32 31 30 28 26 25 24 23 22 22 19 18 17 16 16 15 14 12 9 8 9 7 6 9 12 11 12 13 10 11 13 14 14 13 13 14 15 14 15 18 19 20 21 23
30 27 25 25 27 31 32 30 29 30 30 29 27 24 22 23 24 26 27 26 25 25 26 28 28 27 25 25 26 28 30 29 26 23 22 23 26 28 29 29 29 29 29 28 28 27 27 26 25 24 23 20 19 19 18 16 15 14 12 8 7 8 8 8 10 12 12 13 12 11 13 15 15 14 13 13 14 15 15 16 17 18 18 19 22
28 25 23 22 24 28 30 29 28 30 30 29 27 25 23 23 24 25 26 24 23 25 26 25 25 24 24 26 28 29 28 26 24 22 21 21 23 25 26 26 26 26 25 25 26 27 26 26 25 24 23 22 21 20 18 17 16 15 12 9 9 9 9 10 13 13 12 13 14 14 16 18 16 14 14 14 15 15 15 15 16 17 17 18 21
28 23 20 21 22 25 27 27 28 29 30 29 28 27 26 26 25 25 26 25 24 24 25 24 22 23 24 26 27 26 25 23 23 23 20 19 20 22 23 24 24 23 23 24 25 26 25 25 25 24 23 22 21 20 18 17 17 14 13 12 12 12 13 15 17 16 15 16 16 16 17 17 15 15 15 14 15 15 16 16 16 16 17 17 20
28 23 19 19 21 23 26 28 29 30 30 30 30 29 29 28 27 27 26 24 23 23 24 25 25 25 25 24 23 23 24 23 23 22 20 19 18 19 21 22 22 22 23 23 24 25 25 25 25 23 22 21 20 19 18 18 17 15 15 16 17 17 18 18 17 16 16 16 15 15 16 16 15 15 15 13 13 15 16 16 16 16 16 17 19
27 23 21 21 21 22 25 27 28 29 31 32 31 30 29 27 27 28 27 25 24 23 22 24 26 26 25 21 20 22 22 22 22 22 20 18 17 17 19 20 20 21 22 23 24 25 25 26 25 23 22 21 21 21 21 20 19 17 17 17 17 16 16 15 14 14 15 16 17 17 17 15 14 13 12 11 13 16 16 16 16 15 16 17 20
23 22 22 21 20 20 21 23 24 26 28 29 30 30 28 27 28 29 29 28 27 25 23 24 25 26 24 22 21 22 22 21 21 20 19 18 17 17 18 19 21 22 23 24 24 25 25 26 27 25 23 23 23 23 22 21 19 17 16 17 16 15 14 13 13 15 16 16 17 17 15 14 13 13 13 14 17 18 17 16 16 15 15 18 21
18 19 19 17 16 18 19 21 24 25 26 28 29 29 28 29 30 31 30 29 28 26 24 24 25 26 26 24 22 22 21 21 20 19 18 17 17 17 19 21 23 25 25 26 26 26 26 27 27 26 24 23 23 23 22 20 17 16 17 18 17 16 14 14 15 16 16 16 17 16 15 15 15 15 17 19 19 18 16 16 16 15 17 19 21
18 18 15 13 15 18 20 22 24 26 27 29 29 28 29 30 30 29 29 27 26 25 24 24 25 26 27 26 24 23 22 21 20 19 19 19 19 20 21 23 25 27 27 28 28 28 28 27 26 25 25 25 24 23 21 18 17 18 21 20 18 16 15 15 15 15 15 16 17 17 17 17 18 20 21 20 17 15 15 16 16 16 18 20 21
20 19 17 17 20 22 22 22 23 24 26 27 28 29 30 30 29 28 27 26 24 24 24 25 25 27 28 28 27 25 23 21 20 20 20 20 21 21 22 23 25 27 27 28 29 28 28 27 26 26 25 25 25 23 21 18 19 21 22 20 17 16 16 16 15 15 16 17 18 18 19 19 20 20 20 18 15 14 15 16 17 18 18 19 21
20 20 21 22 21 22 23 23 23 25 27 27 28 29 29 28 27 27 26 24 22 23 24 25 26 27 28 28 29 28 26 25 24 24 24 23 23 24 24 24 25 26 27 28 29 28 27 26 25 26 26 24 23 22 20 19 20 20 19 18 17 17 17 17 17 18 19 20 20 20 20 18 16 14 13 14 15 15 14 15 17 18 19 20 21
24 23 23 23 21 21 23 23 24 26 28 28 29 29 28 28 27 27 26 24 22 21 21 22 24 25 25 25 27 29 30 30 30 29 28 28 27 27 26 26 26 27 28 29 28 27 27 26 25 25 25 24 23 22 21 21 21 21 20 18 18 18 18 18 18 18 18 18 18 18 17 17 16 15 14 15 16 15 14 16 17 18 19 21 20
27 26 24 21 20 22 24 25 26 27 28 28 29 28 28 28 28 28 26 24 22 20 19 19 22 23 23 22 22 24 28 33 34 33 31 31 30 30 30 29 29 29 30 30 29 26 24 22 21 21 21 20 20 20 20 20 20 20 19 18 18 18 19 19 19 19 18 18 18 18 18 18 17 17 17 17 17 17 17 18 19 19 19 19 19
26 25 23 20 20 23 26 26 27 27 27 28 28 28 27 27 28 27 26 24 22 20 18 18 20 20 21 22 20 18 19 25 31 33 33 33 32 32 32 32 32 32 32 31 30 26 21 19 17 17 17 18 18 19 19 18 18 19 18 18 18 19 20 20 20 20 20 20 20 19 19 18 18 19 19 18 18 18 18 19 19 18 18 17 19
21 21 19 18 20 23 26 26 25 25 25 26 27 27 28 27 27 27 25 23 22 20 17 16 17 18 20 24 23 20 17 18 21 26 31 33 33 32 33 33 34 34 34 32 31 28 25 22 21 19 18 18 19 20 19 19 18 18 18 18 19 20 21 21 22 22 22 22 21 20 20 19 19 19 19 17 17 17 18 17 17 18 18 19 20
19 18 17 16 18 21 23 24 23 23 24 26 27 27 27 27 27 27 25 24 24 23 21 20 18 18 20 23 24 23 21 21 20 21 25 29 31 31 31 32 33 35 35 34 33 30 27 26 25 23 20 18 19 20 20 20 19 19 19 19 20 21 21 21 21 21 22 22 22 21 20 20 20 19 18 18 18 18 18 19 20 20 20 19 19
21 20 18 18 18 18 20 20 21 22 25 26 26 26 26 26 26 26 25 25 26 25 24 23 21 20 20 21 23 22 22 22 23 22 23 25 27 28 28 28 30 32 35 36 35 33 30 28 26 23 20 20 21 22 23 23 21 19 20 21 22 23 23 23 23 23 24 24 24 23 22 21 20 19 18 18 19 19 19 20 20 20 19 19 20
21 21 21 21 21 19 19 20 21 22 23 23 23 24 25 25 24 25 26 27 27 26 24 23 23 23 22 22 22 23 22 23 24 24 23 23 25 26 26 25 26 28 31 34 35 35 33 31 28 25 23 23 23 23 24 23 21 19 19 21 22 22 23 23 22 22 22 23 23 23 23 21 21 20 20 20 20 20 20 21 21 20 21 22 24
20 22 23 22 22 21 20 21 22 22 23 23 23 23 25 26 26 26 27 27 27 27 27 25 24 23 23 22 22 22 22 23 24 24 24 24 24 24 24 23 22 22 24 27 30 33 33 32 30 27 26 26 25 25 24 23 20 19 20 21 21 22 22 21 21 21 22 23 22 22 21 21 21 21 20 19 19 20 21 22 23 23 24 25 27
15 18 19 18 18 19 19 19 21 22 23 25 25 25 26 27 27 26 27 27 26 26 27 27 26 24 24 23 22 22 21 22 23 25 25 25 24 23 22 21 22 22 21 21 24 27 30 30 30 27 25 24 24 24 23 22 21 20 21 22 23 24 24 22 22 22 22 23 23 23 21 20 20 20 19 18 19 20 22 23 24 24 25 27 27
14 15 15 12 12 15 17 18 19 21 22 23 24 24 25 27 27 27 27 27 26 26 26 26 26 26 25 24 22 21 21 21 22 24 24 24 23 22 21 22 25 25 24 22 22 22 22 24 24 23 21 21 20 20 19 19 19 19 20 21 23 24 23 22 22 22 21 21 21 21 19 17 18 19 19 20 23 25 25 25 25 25 25 26 25
19 17 15 13 12 15 17 18 19 20 20 21 22 23 24 26 28 28 28 27 27 28 28 27 27 26 26 23 21 21 22 22 21 20 22 23 24 23 24 25 27 26 26 25 23 20 19 19 20 20 20 20 19 19 19 19 19 19 19 20 22 22 22 22 23 23 23 23 23 23 22 23 24 24 25 25 27 28 27 26 25 25 25 25 25
20 17 16 18 17 17 17 19 20 21 21 22 21 22 24 26 26 27 27 28 29 28 27 27 27 26 24 23 23 24 24 24 22 21 22 23 23 22 24 27 29 27 26 24 23 21 22 23 23 23 23 22 21 21 21 21 21 21 21 22 23 23 24 24 24 24 24 25 26 26 27 27 28 28 27 28 28 28 27 26 26 25 25 25 25
14 11 11 14 14 13 14 17 18 19 20 21 21 21 23 25 26 26 26 25 25 24 23 24 25 24 22 22 24 25 25 24 23 23 23 22 20 19 21 25 28 30 29 27 24 24 26 27 27 27 26 25 24 23 23 22 22 23 23 23 22 22 22 22 23 24 25 25 26 26 27 27 27 27 27 27 27 27 27 26 25 24 24 24 24
Wind_Direction
190 193 195 196 195 194 194 194 196 196 198 203 199 191 192 196 201 217 229 221 205 198 200 198 197 200 203 202 201 198 196 194 191 190 188 188 187 184 183 184 184 183 180 181 179 175 176 175 172 168 159 151 147 140 127 111 115 131 122 110 107 90 69 64 48 8 1 352 352 357 348 338 343 347 344 340 339 345 355 360 356 353 357 358 355
189 191 194 194 194 196 193 191 193 195 200 201 193 191 194 195 210 227 222 203 192 187 191 196 196 198 200 200 199 196 196 194 192 190 190 189 186 183 186 186 183 181 182 184 182 177 178 177 174 173 170 165 159 151 141 126 126 139 124 105 85 72 46 33 28 7 2 5 360 354 344 338 340 344 344 338 337 343 353 360 359 356 358 358 355
189 192 194 193 193 194 192 190 190 193 199 195 187 191 194 199 220 227 203 192 188 181 188 195 195 197 198 198 196 195 196 195 193 193 192 189 187 186 188 186 182 183 185 185 184 182 179 176 174 174 173 172 166 161 158 151 154 151 123 92 39 21 21 26 17 357 352 357 356 349 342 339 339 341 340 335 337 345 353 359 2 360 359 360 356
190 193 195 193 191 190 190 190 188 192 197 190 182 188 196 208 222 206 186 188 181 178 191 195 194 196 197 196 195 195 197 196 195 195 190 189 190 191 190 185 182 184 184 182 182 182 179 175 176 175 174 173 168 166 165 157 158 158 137 107 27 344 360 27 12 350 345 347 350 349 341 338 338 337 334 333 339 347 352 359 4 2 2 3 358
188 193 195 193 191 188 188 189 189 194 195 185 183 191 201 215 214 187 185 187 177 182 193 192 193 197 196 195 195 197 198 197 196 193 189 191 193 193 189 183 181 183 183 183 184 182 180 178 177 177 179 178 173 170 171 166 157 145 134 106 65 344 359 22 10 352 345 339 341 343 337 336 336 331 331 335 342 348 353 1 6 4 3 5 2
192 194 193 190 189 188 188 190 193 195 189 183 189 197 207 218 205 183 185 182 178 187 192 190 195 197 195 196 197 199 199 197 196 194 192 193 192 190 187 184 185 188 188 188 188 185 184 184 184 185 186 183 177 173 171 171 163 144 134 12 23 360 2 20 14 357 343 334 334 334 332 336 333 327 333 341 346 350 355 0 8 9 4 1 2
195 194 189 187 188 188 188 191 194 193 187 187 194 200 209 215 195 181 182 179 182 191 189 190 195 194 193 195 198 200 200 196 196 196 195 194 191 189 189 189 190 189 190 192 192 191 192 192 194 194 191 184 177 175 177 184 188 171 163 348 1 360 4 19 19 359 339 334 335 329 329 335 329 328 339 347 351 357 360 359 3 8 6 1 1
192 190 187 188 188 187 188 190 194 191 187 190 197 203 209 203 184 182 182 181 188 190 188 191 191 188 191 196 199 200 198 197 198 198 197 195 194 193 192 192 191 190 193 197 196 198 201 200 199 194 186 180 176 177 182 191 206 214 27 356 356 1 6 14 17 4 352 350 337 326 330 333 330 335 345 351 354 1 4 1 359 1 1 1 2
188 187 188 188 187 188 189 191 191 188 188 192 199 205 203 188 184 186 183 185 190 187 188 191 187 186 191 195 199 200 198 199 201 200 199 198 197 195 194 194 195 196 198 200 200 205 207 198 191 189 186 184 183 185 186 184 183 215 3 354 354 1 4 8 13 8 4 1 337 328 334 335 337 343 347 351 357 1 3 3 1 358 356 357 360
188 187 186 187 187 187 189 190 189 189 190 193 200 204 195 183 187 186 182 188 189 184 188 189 185 188 192 194 198 200 200 202 202 201 202 201 198 196 195 196 198 200 201 200 203 208 204 191 191 194 192 190 188 190 194 190 183 203 328 345 351 356 360 4 8 6 4 3 350 339 337 337 343 346 346 353 1 2 2 2 358 356 353 351 353
188 186 183 184 186 187 188 190 191 191 192 194 199 201 192 184 186 184 184 190 187 185 189 187 186 190 194 197 201 200 201 203 202 202 202 202 199 197 198 198 198 200 200 201 208 209 199 194 197 198 197 198 198 198 198 197 197 217 288 334 346 351 355 359 2 2 1 360 358 353 339 336 346 352 351 358 3 2 1 359 355 353 351 346 344
185 185 184 185 187 188 189 192 192 193 195 195 194 195 191 185 185 185 187 189 187 188 191 187 188 193 196 200 204 203 204 206 204 204 203 201 200 199 198 198 198 200 200 203 211 211 201 200 202 201 201 201 203 207 207 204 210 230 283 320 335 343 349 355 357 357 356 356 357 358 344 336 349 358 358 360 1 360 358 357 354 352 349 344 341
183 184 186 189 191 190 190 191 192 195 198 195 190 193 193 188 189 189 188 190 190 189 191 190 192 195 197 201 206 207 209 209 208 207 203 200 199 197 197 198 199 201 201 203 211 212 207 206 204 202 203 204 206 212 211 208 216 231 262 294 320 335 342 351 352 350 351 350 350 353 349 343 351 359 359 358 358 358 357 354 353 352 347 344 341
181 182 186 191 193 191 190 192 192 194 197 193 189 193 192 187 194 194 187 190 192 189 191 193 192 195 198 201 208 213 212 212 212 208 203 202 199 194 194 198 197 198 201 203 211 215 212 212 210 205 205 208 213 218 217 217 245 280 291 308 331 338 337 340 341 341 344 345 343 346 349 350 353 356 356 355 356 357 356 354 354 352 346 343 342
182 181 183 187 191 192 192 193 193 194 194 190 188 192 187 184 197 197 187 190 194 191 193 193 192 195 198 200 209 215 215 215 214 209 205 203 196 190 192 193 192 194 198 200 206 210 204 203 210 216 219 217 214 219 226 233 278 303 309 324 336 333 327 327 329 333 337 339 337 338 345 353 354 352 351 352 354 354 351 350 353 354 348 344 344
187 183 181 183 187 189 190 192 193 193 192 192 192 190 184 188 198 196 189 191 194 192 193 194 194 195 193 198 210 214 214 216 216 211 207 203 195 191 191 191 193 198 201 201 205 209 207 200 199 215 229 226 215 216 228 236 256 283 301 317 321 322 324 320 318 321 328 332 331 334 346 355 352 349 350 351 350 349 347 347 353 356 351 346 345
188 185 183 182 183 185 187 189 190 190 192 197 198 192 190 198 201 193 190 194 196 194 194 196 197 196 192 198 209 214 214 218 219 212 206 202 198 195 193 194 197 203 210 212 212 216 219 212 204 214 232 233 221 221 227 233 247 267 284 292 298 322 323 303 297 306 318 326 331 342 355 357 349 347 349 349 348 350 348 347 349 351 350 348 348
190 188 185 183 183 185 188 188 190 192 196 204 203 193 193 203 202 192 194 198 196 195 195 195 196 195 193 200 211 218 221 222 220 213 207 203 201 200 198 196 195 201 212 217 213 212 223 222 212 219 235 236 226 228 229 234 246 259 275 284 289 299 287 277 284 302 315 323 335 353 1 356 347 343 344 347 350 351 350 349 348 346 345 346 346
191 190 186 184 182 184 189 192 195 198 201 207 204 194 194 201 202 197 198 200 199 198 197 196 196 197 200 208 217 225 228 226 220 214 208 205 206 205 202 194 195 203 209 216 213 209 222 231 224 226 239 241 237 238 235 236 246 256 271 278 273 269 276 281 292 307 316 325 345 359 359 351 342 338 339 344 348 348 348 349 348 345 343 343 342
188 187 185 183 183 187 194 198 199 200 204 209 208 202 201 205 206 203 202 202 203 203 202 202 203 206 211 217 221 226 229 227 222 217 210 207 209 209 203 195 198 205 203 210 221 219 225 234 231 230 238 241 238 238 237 239 249 258 264 272 277 284 293 299 306 313 318 333 356 359 350 340 333 331 335 341 344 345 349 350 348 347 347 345 342
185 183 184 187 189 192 198 199 199 201 206 211 212 209 209 211 211 209 207 206 208 209 208 208 210 213 218 219 220 226 230 227 223 219 213 210 211 210 205 199 198 199 197 204 217 222 228 236 234 229 235 239 236 234 237 241 251 259 266 275 285 292 298 304 310 317 323 341 359 352 337 329 327 327 332 339 342 345 350 350 349 349 351 351 346
184 182 184 188 188 191 197 199 200 204 209 213 214 213 212 213 213 214 212 212 212 212 211 211 213 218 221 220 219 224 229 228 224 219 214 212 211 209 207 204 198 194 202 211 214 216 228 241 241 232 231 236 237 235 236 242 251 260 266 275 284 290 297 304 311 325 338 351 357 342 326 324 326 326 328 334 341 346 348 347 347 349 353 355 353
187 185 185 187 191 198 203 205 206 208 212 216 217 216 215 214 213 215 217 217 213 209 209 212 214 215 216 216 214 217 224 227 225 220 216 213 211 209 208 207 201 192 195 205 210 212 220 233 241 239 234 234 236 237 238 244 254 261 265 273 280 286 297 302 305 323 340 349 350 334 320 321 324 324 328 336 344 349 346 342 344 348 350 353 356
187 186 184 188 197 206 211 212 212 213 215 218 219 219 217 215 213 213 216 216 212 206 206 208 207 206 208 210 208 211 219 225 225 222 219 216 213 210 208 207 205 199 194 198 205 208 210 218 231 239 241 238 237 240 241 245 255 262 266 275 280 285 296 301 298 315 337 344 337 320 311 316 320 319 328 341 347 345 342 341 345 349 349 352 359
189 191 192 196 206 212 212 213 214 214 216 218 220 219 217 216 214 212 212 213 211 207 206 205 204 206 209 210 209 209 217 225 226 223 221 220 218 215 212 211 210 208 204 205 210 212 212 217 225 232 239 241 241 242 243 246 255 262 268 277 280 281 293 302 295 309 332 330 317 307 303 313 315 313 323 339 342 338 340 346 349 349 349 353 358
187 192 194 200 210 213 212 213 213 214 217 218 219 220 220 220 218 214 214 216 215 213 212 210 210 211 211 212 211 209 215 225 230 226 223 223 221 218 216 215 215 214 211 213 218 220 219 223 227 230 236 240 241 243 245 247 255 263 268 276 278 276 289 309 311 318 319 303 306 310 304 303 308 312 322 334 333 330 338 347 349 349 349 352 354
190 194 197 203 212 215 215 214 213 214 216 216 215 216 218 220 221 219 219 219 217 216 215 214 213 212 210 210 210 208 213 226 235 232 225 223 223 221 220 219 219 219 217 218 223 224 224 227 232 234 239 244 245 246 246 246 253 261 266 273 277 271 276 296 307 313 304 289 299 312 299 296 308 313 320 329 325 326 342 351 346 345 350 353 353
198 200 205 211 217 220 221 218 215 215 215 214 215 216 216 217 220 223 224 223 221 217 213 211 211 210 209 210 209 207 214 227 238 240 233 227 226 225 224 223 223 223 223 224 226 227 228 231 234 237 243 248 249 246 243 243 251 259 262 274 286 281 280 293 300 305 301 292 298 300 285 291 305 307 313 324 318 320 341 347 339 342 349 352 352
196 197 203 211 216 219 220 219 217 216 216 215 216 218 220 221 221 223 227 229 227 221 214 212 215 214 212 213 213 215 221 233 244 249 243 236 233 232 230 229 229 229 229 229 229 230 231 234 236 239 244 247 246 243 241 243 250 253 252 267 292 292 289 289 292 298 298 295 297 289 278 286 298 300 307 316 310 316 337 339 332 339 346 347 347
191 192 200 211 214 213 213 214 213 213 213 213 212 213 219 223 223 224 228 229 224 220 218 220 223 220 215 216 221 227 234 243 250 253 252 246 239 236 237 237 236 235 234 232 231 231 232 234 237 239 242 244 243 242 240 243 248 250 249 259 280 284 272 267 277 282 278 274 276 276 278 287 294 296 300 303 303 315 334 335 329 334 341 343 342
192 193 201 214 218 214 211 210 209 209 209 209 208 208 213 217 217 221 226 228 224 221 222 224 225 223 219 219 224 232 239 246 250 253 256 253 244 238 237 237 236 235 234 233 231 231 231 233 235 237 239 242 243 243 244 245 246 246 245 246 251 250 243 248 261 266 265 266 269 273 280 286 289 289 291 295 303 315 325 327 327 331 337 338 337
199 198 201 211 219 218 213 210 209 208 206 203 204 208 213 216 215 216 221 226 228 227 226 225 224 225 227 228 232 236 239 243 249 252 255 253 246 239 236 235 233 233 232 232 231 231 231 232 233 234 236 238 241 242 245 247 245 243 241 239 239 239 242 250 259 263 267 270 269 269 276 282 283 286 289 295 303 308 312 317 322 327 331 330 330
204 202 206 214 218 215 210 210 211 211 208 205 205 210 216 220 221 219 216 218 222 226 227 227 228 231 234 236 238 241 242 244 248 251 253 251 244 236 233 233 232 232 232 232 230 229 230 230 231 231 231 233 234 236 239 245 247 246 247 249 251 253 259 266 271 271 273 274 273 275 281 284 287 293 295 292 293 297 303 310 313 318 323 323 325
202 210 221 226 221 211 207 210 214 215 214 211 210 212 217 224 226 224 219 216 218 222 225 226 227 231 234 235 237 240 243 244 244 247 250 248 243 236 230 228 228 228 230 231 230 228 228 228 229 230 231 235 237 238 240 246 249 249 250 253 257 262 266 269 270 270 272 275 277 282 286 288 292 294 285 278 284 292 298 301 302 307 316 318 321
196 216 230 232 222 213 211 212 212 212 212 212 213 216 220 223 225 225 225 225 226 228 230 230 228 228 229 230 232 235 238 241 241 243 245 242 236 232 227 223 223 223 225 227 228 228 228 228 229 230 233 237 241 243 244 247 250 251 252 252 255 258 259 258 259 262 266 268 271 274 277 279 280 276 271 275 286 292 291 289 293 304 313 314 316
213 229 237 238 232 226 220 215 213 211 210 211 214 218 220 221 223 227 229 230 232 235 237 236 233 230 228 228 228 229 233 237 239 240 240 236 230 229 228 225 224 225 226 227 227 227 227 228 229 231 234 238 241 243 243 244 246 247 249 250 253 256 256 256 259 262 264 265 265 265 266 268 268 268 272 280 288 289 284 285 293 303 308 309 314
226 232 232 233 233 227 220 217 217 216 215 214 214 215 216 219 224 229 231 231 231 233 235 235 234 232 229 228 227 226 228 233 236 236 236 234 230 229 231 231 231 230 230 230 229 229 230 229 230 233 236 240 244 245 244 243 246 250 253 254 254 253 253 255 257 257 257 258 258 260 264 269 272 274 275 279 284 288 287 288 294 301 304 306 312
223 228 231 233 232 223 216 216 218 218 219 220 219 218 217 217 220 226 231 233 231 230 230 233 236 236 233 231 230 228 227 229 231 230 230 229 227 227 229 231 232 232 232 232 232 231 232 232 233 236 238 241 245 246 244 243 246 251 255 257 257 255 254 254 254 254 256 260 264 270 275 280 284 285 283 284 288 290 289 290 295 298 299 303 310
223 228 230 232 234 226 216 215 217 218 220 221 220 218 215 214 216 221 227 230 232 231 228 228 234 241 241 238 235 232 230 230 230 230 229 229 228 227 227 228 229 230 231 233 233 233 233 234 236 239 242 246 250 251 248 246 246 248 250 251 253 256 257 257 259 262 265 269 275 282 286 290 293 295 295 293 291 288 286 290 292 292 296 303 310
224 228 227 228 233 229 222 219 219 219 219 219 218 218 218 217 219 222 224 226 230 232 226 219 226 238 246 245 241 238 236 235 234 234 235 234 233 231 229 228 228 228 229 230 231 231 234 237 240 243 247 250 254 256 256 254 252 252 252 251 251 254 256 257 260 263 265 268 272 277 279 280 280 279 278 276 277 280 282 283 285 289 296 304 308
226 230 232 232 229 225 224 224 222 222 222 221 219 220 222 222 222 223 223 220 223 229 227 216 216 231 247 254 252 250 247 242 238 238 240 241 240 238 236 234 231 230 231 232 231 228 226 230 237 242 247 251 253 254 256 257 255 254 254 254 254 256 257 259 260 262 264 267 270 273 275 275 274 274 274 273 273 277 279 279 285 295 300 300 301
225 231 234 230 222 219 222 224 223 223 226 226 224 223 224 223 222 221 220 215 213 217 221 215 209 219 237 250 255 256 255 253 248 245 245 246 246 246 244 242 240 238 237 237 235 229 221 219 222 226 233 245 251 250 249 252 254 255 254 254 255 257 260 262 263 263 263 266 270 275 279 280 280 281 283 283 283 285 285 285 291 297 297 294 296
221 226 226 223 220 220 224 226 227 226 227 228 226 223 221 222 221 217 216 214 210 208 211 214 214 216 226 240 249 251 249 252 256 252 248 247 249 251 251 249 247 245 243 241 239 234 227 224 224 222 226 237 246 245 244 247 252 255 256 256 256 258 261 262 262 263 265 268 272 275 276 278 280 281 282 283 284 287 288 288 290 295 297 298 300
220 222 223 226 227 225 223 222 223 225 227 229 226 220 218 222 223 219 216 214 213 211 211 213 219 223 225 233 242 244 243 248 253 253 249 247 249 253 255 253 251 248 246 244 242 237 233 230 229 228 231 240 245 245 246 250 254 255 257 258 257 257 259 260 261 265 268 271 275 277 276 276 277 278 279 281 283 286 289 290 291 295 297 296 296
219 221 224 228 230 227 219 213 214 220 225 228 226 221 219 220 220 220 220 218 218 218 215 212 218 226 228 231 236 239 240 242 245 245 245 248 251 253 255 256 254 250 246 245 244 241 237 235 233 232 234 237 239 243 248 253 256 253 254 259 262 264 267 271 273 274 275 275 276 278 279 278 278 277 278 280 282 283 285 287 288 290 290 291 294
218 223 226 224 223 221 216 213 217 221 223 224 224 222 220 218 218 222 226 225 223 222 218 211 213 223 229 231 234 237 238 238 238 241 245 249 250 251 251 252 253 251 246 244 242 240 239 239 239 236 234 234 237 242 248 254 255 249 247 252 259 262 266 272 276 278 279 279 279 279 277 277 280 282 280 280 282 282 283 286 287 287 289 292 296
206 215 218 216 215 216 214 214 217 219 221 224 224 220 219 217 216 218 224 224 221 219 218 214 213 218 224 228 232 237 241 243 244 248 250 248 244 242 242 242 244 245 244 243 241 239 240 241 241 239 238 239 242 245 248 251 254 250 246 247 252 256 260 266 272 275 276 277 278 279 277 278 282 283 279 279 285 291 293 293 292 291 293 296 299
192 194 197 202 216 222 217 213 216 220 225 228 224 217 216 216 213 212 216 217 214 213 217 220 218 216 219 227 235 242 247 250 249 248 246 241 236 234 233 235 237 239 238 239 239 237 235 235 236 237 239 242 245 246 246 248 251 254 253 254 258 261 264 268 272 274 273 272 274 276 276 278 283 284 280 281 287 293 296 296 295 296 298 299 299
212 210 209 215 227 225 213 208 212 220 227 231 228 224 225 226 223 223 225 225 221 219 223 226 225 222 221 226 232 237 244 251 250 242 234 234 235 234 230 229 233 234 234 234 234 231 228 230 232 233 235 239 243 243 243 244 248 253 257 260 263 266 266 264 265 267 268 269 271 271 271 273 278 281 282 284 287 290 294 295 295 296 297 297 295
219 226 229 230 232 227 216 214 220 226 232 237 240 239 236 233 233 233 233 231 229 229 228 229 231 230 226 222 223 228 237 245 247 239 232 236 242 244 239 235 234 233 232 233 231 227 226 228 230 229 232 237 241 240 241 244 249 253 258 262 264 268 269 266 264 265 266 267 268 270 271 273 275 278 280 283 286 289 291 293 293 294 295 295 294
227 235 233 230 229 225 220 224 234 240 242 244 246 244 239 236 237 238 238 237 236 235 232 231 232 230 225 222 226 229 231 234 240 244 246 247 248 248 246 243 239 236 235 236 233 228 225 226 228 231 236 242 245 244 245 248 252 256 261 264 266 268 270 269 267 266 265 265 267 270 272 275 277 279 281 283 286 288 290 291 291 292 294 294 294